Miscellaneous Local Product
Issued by NWS North Platte, NE

Home | Current Version | Previous Version | Graphics & Text | Print | Product List | Glossary On
Versions: 1 2 3 4 5 6 7 8 9 10 11 12 13 14 15 16 17 18 19 20 21 22 23 24 25 26 27 28 29 30 31 32 33 34 35 36 37 38 39 40 41 42 43 44 45 46 47 48 49 50
406
AXUS43 KLBF 110510
MISLBF


WESTERN AND NORTH CENTRAL NEBRASKA HOURLY WEATHER ROUNDUP
NATIONAL WEATHER SERVICE NORTH PLATTE NE
1100 PM CST WED FEB 10 2016

NOTE: "FAIR" INDICATES FEW OR NO CLOUDS BELOW 12,000 FEET WITH NO
SIGNIFICANT WEATHER AND/OR OBSTRUCTIONS TO VISIBILITY.

NOTE: STATIONS NOT REPORTING VARIABLES SUCH AS SKY/WEATHER OR
PRESSURE ARE PROVIDED BY THE NEBRASKA DEPARTMENT OF
ROADS...RAWS...AND APRS NETWORKS...AND ARE NOT UNDER
NATIONAL WEATHER SERVICE QUALITY CONTROL.

...OBSERVATIONS IN AND NEAR THE EASTERN PANHANDLE OF NEBRASKA...

CITY           SKY/WX    TMP DP  RH WIND       PRES   REMARKS
PINE RIDGE     CLEAR     28  25  88 E7        30.12R WCI  21
CHADRON        CLOUDY    27  23  85 SW7       30.12R WCI  19
ALLIANCE       CLOUDY    29  26  89 W12       30.11R WCI  19
SIDNEY         CLOUDY    35  26  69 NW14      30.14R WCI  26
CRESCENT LAKE    N/A     34  27  75 NW6         N/A  WCI  29
BIG SPRINGS      N/A     37  30  77 SW6         N/A  WCI  32
$$

...OBSERVATIONS IN NORTH CENTRAL NEBRASKA...

CITY           SKY/WX    TMP DP  RH WIND       PRES   REMARKS
VALENTINE      CLOUDY    30  27  88 N9        30.15R WCI  22
THEDFORD       CLOUDY    31  29  91 N3        30.14R
AINSWORTH      CLOUDY    31  28  87 N10       30.14R WCI  22
O`NEILL        CLOUDY    26  24  91 N6        30.15R WCI  19
ORD            CLOUDY    29  25  85 N6        30.13R WCI  23
BROKEN BOW     CLEAR     33  28  81 NE7       30.11R WCI  27
VALENTINE NWR    N/A     30  28  90 NE7         N/A  WCI  23
BUTTE            N/A     22  20  92 NE7         N/A  WCI  14
HALSEY           N/A     32  28  85 NW3         N/A
CHAMBERS         N/A     27  23  83 N3          N/A
EWING            N/A     22  20  90 CALM        N/A
$$

...OBSERVATIONS IN SOUTHWEST NEBRASKA AND FAR NORTHEAST COLORADO...

CITY           SKY/WX    TMP DP  RH WIND       PRES   REMARKS
HOLYOKE        FAIR      43  28  56 NW10      30.13
IMPERIAL       CLEAR     37  28  70 W7        30.11R WCI  32
OGALLALA       CLEAR     37  28  69 CALM      30.11R
NORTH PLATTE   CLEAR     35  28  75 NE12      30.11R WCI  27
MCCOOK         CLOUDY    35  29  78 N7        30.10R WCI  29
LEXINGTON      CLOUDY    34  28  79 N6        30.11R WCI  29
PAXTON           N/A     37  30  75 CALM        N/A
STAPLETON        N/A     32  28  84 CALM        N/A
GOTHENBURG       N/A     38  29  69 CALM        N/A
CALLAWAY         N/A     34  29  82 N5          N/A  WCI  30
$$

...OBSERVATIONS IN CENTRAL LINCOLN COUNTY AREA...

CITY           SKY/WX    TMP DP  RH WIND       PRES   REMARKS
N.P. AIRPORT   CLEAR     35  28  75 NE12      30.11R WCI  27
N.P. DOWNTOWN    N/A     37  30  75 NE7         N/A  WCI  31
N.P. SOUTHEAST   N/A     37  30  75 NE3         N/A
N.P. HILLCREST   N/A     36  30  79 NE9         N/A  WCI  29
$$

...SOME OBSERVATIONS FROM AROUND THE REGION...

CITY           SKY/WX    TMP DP  RH WIND       PRES   REMARKS
DENVER         CLOUDY    44  14  29 E3        30.19R
LARAMIE        CLOUDY    27  17  66 S10       30.23S WCI  17
CHEYENNE       CLOUDY    38  15  39 NW5       30.19R WCI  34
SCOTTSBLUFF    CLEAR     33  26  75 NW8       30.14R WCI  26
RAPID CITY     CLOUDY    29  27  92 E3        30.14R
BISMARCK       CLOUDY    17  10  74 E7        30.22S WCI   8
PIERRE         PTCLDY    22  19  89 CALM      30.19R
WINNER         CLOUDY    28  22  78 N5        30.17R WCI  23
SIOUX FALLS    CLOUDY    13   7  77 NE12      30.21R WCI  -1
OMAHA          CLOUDY    22  16  78 N7        30.17R WCI  13
GRAND ISLAND   CLEAR     26  23  88 CALM      30.13R
KANSAS CITY    CLEAR     27  22  81 NE12      30.06R WCI  17
WICHITA        PTCLDY    47  30  51 N9        29.98R
OKLAHOMA CITY  CLEAR     55  30  38 N13       29.97R
LIBERAL        CLOUDY    37  16  41 N7        30.07R WCI  32
HAYS           CLOUDY    36  21  55 NW7       30.06R WCI  30
GOODLAND       CLOUDY    39  28  64 NW13      30.11R WCI  31
$$




USA.gov is the U.S. government's official web portal to all federal, state and local government web resources and services.